EW4346 Weather Reports


time (UTC)temp
C
wind
direction
speed
KPH
gust
KPH
rain 1hr
cm
rain 24hr
cm
rain mn
cm
humidity
%
barometer
mb
20260504182930 16 176 4.8 22.5 0.00 0.00 0.00 53 1004.8
20260504182415 15 221 6.4 22.5 0.00 0.00 0.00 55 1004.8
20260504182136 15 49 6.4 19.3 0.00 0.00 0.00 55 1004.9
20260504181403 15 142 6.4 16.1 0.00 0.00 0.00 56 1005.0
20260504181117 15 132 4.8 16.1 0.00 0.00 0.00 55 1004.9
20260504180347 15 219 4.8 16.1 0.00 0.00 0.00 56 1005.0
20260504175842 14 150 4.8 16.1 0.00 0.00 0.00 58 1005.1
20260504175327 13 142 3.2 11.3 0.00 0.00 0.00 59 1005.3
20260504174821 13 80 4.8 17.7 0.00 0.00 0.00 61 1005.1
20260504174316 12 11 4.8 17.7 0.00 0.00 0.00 60 1005.1
20260504173805 12 325 3.2 14.5 0.00 0.00 0.00 61 1005.4
20260504173300 12 340 3.2 14.5 0.00 0.00 0.00 59 1005.4
20260504173018 13 47 3.2 9.7 0.00 0.00 0.00 59 1005.4
20260504172239 13 256 4.8 14.5 0.00 0.00 0.00 60 1005.3
20260504171733 13 123 6.4 24.1 0.00 0.00 0.00 59 1005.3
20260504171227 13 355 6.4 24.1 0.00 0.00 0.00 58 1005.0
20260504170727 13 214 4.8 19.3 0.00 0.00 0.00 58 1005.0
20260504170445 13 221 4.8 14.5 0.00 0.00 0.00 57 1004.9
20260504150706 14 51 6.4 20.9 0.00 0.00 0.00 54 1004.7
20260504150209 14 97 4.8 20.9 0.00 0.00 0.00 55 1004.8
20260504141142 12 126 6.4 17.7 0.00 0.00 0.00 58 1005.4
20260504140640 12 205 4.8 14.5 0.00 0.00 0.00 58 1005.5
20260504140140 12 281 4.8 19.3 0.00 0.00 0.00 59 1005.5
20260504130625 8 158 4.8 19.3 0.00 0.00 0.00 74 1006.1
20260504130126 8 141 4.8 19.3 0.00 0.00 0.00 75 1006.2
20260504110446 4 92 0.0 0.0 0.00 0.00 0.00 84 1006.6
20260504100310 3 92 0.0 0.0 0.00 0.00 0.00 83 1006.6
20260504090134 3 92 0.0 0.0 0.00 0.00 0.00 80 1006.2
20260504081014 4 58 0.0 6.4 0.00 0.00 0.00 77 1006.6
20260504080731 4 211 0.0 3.2 0.00 0.00 0.00 78 1006.8
20260504070331 5 317 1.6 12.9 0.00 0.00 0.00 68 1006.6
20260504050311 2 12 1.6 8.0 0.00 0.00 0.00 68 1006.4
20260504045811 2 210 0.0 4.8 0.00 0.00 0.00 68 1006.5
20260504045311 2 207 0.0 0.0 0.00 0.00 0.00 70 1006.5
20260504045033 2 207 0.0 3.2 0.00 0.03 0.00 69 1006.6
20260504044312 1 207 0.0 3.2 0.00 0.03 0.00 69 1006.6
20260504043812 1 206 0.0 3.2 0.00 0.03 0.00 70 1006.6
20260504043306 2 206 0.0 3.2 0.00 0.03 0.00 67 1006.7
20260504042800 2 206 0.0 3.2 0.00 0.03 0.00 67 1006.6
20260504042526 2 206 0.0 0.0 0.00 0.03 0.00 69 1006.7
20260504041755 2 206 0.0 1.6 0.00 0.03 0.00 69 1006.7
20260504041251 2 206 0.0 3.2 0.00 0.03 0.00 67 1006.6
20260504034752 3 206 0.0 3.2 0.00 0.03 0.03 66 1006.4
20260504034252 3 206 0.0 3.2 0.00 0.03 0.03 65 1006.4
20260504033749 2 207 0.0 0.0 0.00 0.03 0.03 67 1006.4
20260504033247 2 207 0.0 0.0 0.00 0.03 0.03 67 1006.3
20260504032747 2 206 0.0 0.0 0.00 0.03 0.03 68 1006.4
20260504032248 2 206 0.0 4.8 0.00 0.03 0.03 69 1006.4
20260504031744 2 201 0.0 4.8 0.00 0.03 0.03 68 1006.4
20260504031243 2 201 0.0 1.6 0.00 0.03 0.03 69 1006.4
20260504030743 2 201 0.0 0.0 0.00 0.03 0.03 70 1006.5
20260504030513 2 201 0.0 0.0 0.00 0.03 0.03 70 1006.4
20260504030013 2 201 0.0 0.0 0.00 0.03 0.03 70 1006.4
20260504025243 2 201 0.0 3.2 0.00 0.03 0.03 69 1006.4
20260504024742 2 201 0.0 3.2 0.00 0.03 0.03 70 1006.4
20260504024244 2 274 0.0 0.0 0.00 0.05 0.03 69 1006.4
20260504024012 2 274 0.0 3.2 0.00 0.05 0.03 70 1006.5
20260504023238 2 274 0.0 3.2 0.00 0.05 0.03 70 1006.5
20260504022740 2 274 0.0 0.0 0.00 0.08 0.03 72 1006.6
20260504022508 2 274 0.0 0.0 0.00 0.08 0.03 70 1006.6
20260504021740 2 274 0.0 0.0 0.00 0.10 0.03 68 1006.6
20260504021240 3 274 0.0 3.2 0.00 0.10 0.03 68 1006.6
20260504021003 3 274 0.0 3.2 0.00 0.10 0.03 70 1006.6
20260504020240 3 275 0.0 1.6 0.00 0.10 0.03 68 1006.6
20260504015734 2 275 0.0 1.6 0.00 0.10 0.03 68 1006.6
20260504015228 3 275 0.0 1.6 0.00 0.13 0.03 72 1006.6
20260504014715 3 275 0.0 1.6 0.00 0.13 0.03 68 1006.6
20260504014209 3 275 0.0 1.6 0.00 0.13 0.03 70 1006.6
20260504014139 2 275 0.0 4.8 0.00 0.13 0.03 69 1006.5
20260504013152 2 275 0.0 4.8 0.00 0.15 0.03 72 1006.5
20260504013134 2 245 0.0 4.8 0.00 0.15 0.03 70 1006.5
20260504012141 2 273 0.0 0.0 0.00 0.18 0.03 71 1006.4
20260504011853 2 273 0.0 3.2 0.00 0.18 0.03 70 1006.5
20260504011121 2 273 0.0 3.2 0.00 0.20 0.03 70 1006.4
20260504010615 2 273 0.0 3.2 0.00 0.23 0.03 72 1006.4
20260504010105 2 273 0.0 9.7 0.00 0.30 0.03 72 1006.3
20260504005559 2 207 0.0 9.7 0.00 0.43 0.03 71 1006.2
20260504005057 2 5 0.0 4.8 0.00 0.43 0.03 72 1006.2
20260504004544 2 240 0.0 1.6 0.00 0.43 0.03 73 1006.2
20260504004527 2 240 0.0 1.6 0.00 0.43 0.03 73 1006.1
20260504003527 2 240 0.0 1.6 0.00 0.43 0.03 73 1006.1
20260504003016 2 240 0.0 1.6 0.00 0.43 0.03 73 1006.0
20260504002732 2 240 0.0 1.6 0.00 0.43 0.03 74 1006.0
20260504002004 3 240 0.0 0.0 0.00 0.43 0.03 71 1006.0
20260504001450 3 240 0.0 0.0 0.00 0.43 0.03 71 1005.9
20260504000944 3 240 0.0 0.0 0.00 0.43 0.03 71 1005.9
20260504000439 3 240 0.0 3.2 0.00 0.43 0.03 70 1005.8
20260503235928 3 240 0.0 3.2 0.00 0.43 0.03 69 1005.7
20260503235422 3 244 0.0 4.8 0.00 0.43 0.03 67 1005.7
20260503234917 4 244 0.0 4.8 0.00 0.43 0.03 69 1005.6
20260503234403 4 248 0.0 4.8 0.00 0.43 0.03 67 1005.6
20260503233856 4 248 0.0 4.8 0.00 0.43 0.03 67 1005.6
20260503233351 5 260 0.0 1.6 0.00 0.43 0.03 66 1005.6
20260503232840 5 260 0.0 11.3 0.00 0.43 0.03 64 1005.5
20260503232334 5 258 1.6 11.3 0.00 0.43 0.03 64 1005.5
20260503231828 5 202 1.6 4.8 0.00 0.43 0.03 63 1005.5
20260503231314 5 319 1.6 8.0 0.00 0.43 0.03 63 1005.5
20260503231036 5 54 1.6 19.3 0.00 0.43 0.03 64 1005.5
20260503230302 5 221 1.6 19.3 0.00 0.46 0.03 63 1005.5
20260503225753 5 260 0.0 6.4 0.00 0.46 0.03 63 1005.5
20260503225247 5 254 1.6 11.3 0.00 0.46 0.03 61 1005.4
20260503224740 5 320 3.2 25.7 0.00 0.46 0.03 62 1005.4
20260503224237 5 330 3.2 25.7 0.00 0.46 0.03 62 1005.4
20260503223737 6 236 3.2 11.3 0.00 0.46 0.03 60 1005.5
20260503223236 6 36 1.6 12.9 0.00 0.46 0.03 61 1005.4
20260503222736 6 246 1.6 12.9 0.00 0.46 0.03 60 1005.1
20260503222234 6 307 3.2 12.9 0.00 0.46 0.03 61 1005.1
20260503221734 6 286 3.2 12.9 0.00 0.46 0.03 62 1005.1
20260503221235 6 226 3.2 12.9 0.00 0.46 0.03 61 1005.0
20260503220735 6 266 4.8 14.5 0.00 0.46 0.03 61 1005.1
20260503220234 6 355 3.2 16.1 0.00 0.46 0.03 60 1005.0
20260503215730 6 12 3.2 16.1 0.00 0.46 0.03 59 1005.0
20260503215449 6 26 3.2 12.9 0.00 0.46 0.03 59 1005.0
20260503214731 6 15 3.2 12.9 0.00 0.46 0.03 60 1004.9
20260503214231 6 5 3.2 12.9 0.00 0.46 0.03 59 1004.9
20260503213725 6 17 3.2 12.9 0.00 0.48 0.03 59 1004.9
20260503213219 6 292 3.2 14.5 0.00 0.48 0.03 60 1005.0
20260503212716 6 283 3.2 14.5 0.00 0.48 0.03 57 1005.0
20260503212217 6 170 1.6 14.5 0.00 0.48 0.03 58 1004.9
20260503211717 6 282 3.2 14.5 0.00 0.48 0.03 60 1004.9
20260503211215 6 62 3.2 9.7 0.00 0.48 0.03 59 1004.9
20260503210714 6 254 1.6 9.7 0.00 0.48 0.03 59 1004.9
20260503210214 6 323 1.6 8.0 0.00 0.53 0.03 60 1005.0
20260503205715 6 338 3.2 9.7 0.00 0.58 0.03 60 1004.8
20260503205213 6 320 3.2 19.3 0.00 0.61 0.03 61 1004.8
20260503204715 6 126 3.2 19.3 0.00 0.61 0.03 60 1004.6
20260503204444 6 18 4.8 19.3 0.00 0.61 0.03 61 1004.8
20260503203714 6 32 4.8 19.3 0.00 0.64 0.03 60 1004.7
20260503203214 6 299 4.8 17.7 0.00 0.64 0.03 60 1004.8
20260503202715 6 188 3.2 11.3 0.00 0.66 0.03 59 1004.7
20260503202213 6 34 3.2 14.5 0.00 0.66 0.03 58 1004.7
20260503201919 6 325 4.8 29.0 0.00 0.66 0.03 64 1004.7
20260503201804 6 66 1.6 14.5 0.00 0.66 0.03 59 1004.7
20260503201159 6 355 6.4 29.0 0.00 0.66 0.03 60 1004.7
20260503200214 6 16 6.4 27.4 0.00 0.66 0.03 61 1004.7
20260503195715 6 259 8.0 27.4 0.00 0.66 0.03 60 1004.6
20260503195215 6 355 6.4 19.3 0.00 0.66 0.03 59 1004.6
20260503194715 6 298 3.2 12.9 0.00 0.66 0.03 60 1004.7
20260503194215 6 265 3.2 20.9 0.00 0.66 0.03 59 1004.7
20260503193714 7 294 4.8 20.9 0.00 0.66 0.03 58 1004.6
20260503193215 7 265 6.4 17.7 0.00 0.66 0.03 56 1004.8
20260503192717 7 42 8.0 27.4 0.00 0.66 0.03 55 1004.6
20260503192215 7 319 9.7 32.2 0.00 0.66 0.03 57 1004.5
20260503191932 7 31 6.4 32.2 0.00 0.66 0.03 56 1004.5
20260503191209 7 355 8.0 30.6 0.00 0.66 0.03 56 1004.7
20260503190659 7 346 8.0 30.6 0.00 0.66 0.03 58 1004.6
20260503190153 8 50 6.4 17.7 0.00 0.66 0.03 57 1004.6
20260503185648 7 5 6.4 17.7 0.00 0.66 0.03 58 1004.5
20260503185133 8 288 6.4 17.7 0.00 0.66 0.03 60 1004.5
20260503184627 8 36 4.8 17.7 0.00 0.66 0.03 60 1004.6
20260503184121 7 259 6.4 20.9 0.00 0.66 0.03 59 1004.4
20260503183612 7 322 8.0 24.1 0.00 0.66 0.03 56 1004.4
20260503183554 8 10 8.0 24.1 0.00 0.66 0.03 58 1004.6